[[{"header":{"parameterUnit":"m.s-1","parameterCategory":1,"la1":30.2991,"la2":30.254,"lo1":-89.0895,"lo2":-89.0444,"dy":0.0017,"dx":0.0017,"nx":28,"ny":28,"refTime":"2023-11-04T21:00:00:Z","depth":0,"parameterNumber":2,"parameterNumberName":"U-component_of_WINDS"},"data":[0,0,0,0,0,0,0,0,0,0,0,0,0,0,0,0,0,0,0,0,0,0,0,0,0,0,0,0,0,0,0,0,0,0,0,0,0,0,0,0,0,0,0,0,0,0,0,0,0,0,0,0,0,0,0,0,0,0,0.9998,0.9999,0,1.0097,1.0099,1.01,1.0137,1.0137,1.0137,1.0136,1.0238,1.0241,1.0243,0,0,0,0,0,0,0,0,0,0,0,0,0,0.984,0.9842,0.9998,0.9999,1.0001,1.0097,1.0099,1.01,1.0137,1.0137,1.0137,1.0136,1.0237,1.024,1.0244,0,0,0,0,0,0,0,0,0,0,0,0,0,0.9921,0.9843,0.9998,1.0031,1.0035,1.0097,1.0099,1.01,1.0137,1.0137,1.0136,1.0136,1.0236,1.024,1.0244,1.0281,0,0,1.0258,1.026,0,0,0,0,0,0,0,0,0.9916,0.9926,1.0025,1.0029,1.0033,1.0105,1.008,1.0161,1.0137,1.0098,1.0136,1.0136,1.0194,1.0202,1.0221,1.0285,1.029,1.0258,1.0261,1.0263,1.0264,0,0,0,0,0,0,0,0.991,0.9922,1.0037,1.0026,1.0031,1.004,1.0051,1.0095,1.0147,1.0102,1.0105,1.0116,1.0196,1.0217,1.0224,1.0291,1.0258,1.0262,1.0265,1.0267,1.0389,1.0389,0,0,0,0,0,0,0.9899,0.9917,1.0034,1.004,0.9972,1.0043,1.0056,1.0082,1.0147,1.0156,1.0116,1.0117,1.0209,1.0219,1.0227,1.0274,1.0263,1.0267,1.027,1.0388,1.0389,1.0389,0,0,0,0,0,0,0.9896,0.9909,1.003,0.998,0.9996,1.0047,1.0076,1.0084,1.0105,1.0158,1.0167,1.0128,1.0209,1.0221,1.0267,1.0278,1.0269,1.0273,1.0387,1.0388,1.0389,1.0366,0,0,0,0,0,0,0.9891,0.9908,0.9923,0.998,0.9998,1.0068,1.0077,1.0087,1.0113,1.0115,1.0172,1.018,1.021,1.026,1.0271,1.0284,1.0277,1.0387,1.0388,1.0389,1.0366,1.0366,1.0366,0,0,0,0,0,0.9885,0.9913,0.9923,0.9937,1.0018,1.0069,1.008,1.0113,1.0114,1.0129,1.0162,1.0179,1.0274,1.0264,1.0277,1.0291,1.0386,1.0388,1.0389,1.0366,1.0366,1.0366,0,0,0,0,0,0,0.9856,0.9921,0.9933,0.998,1.0019,1.0075,1.0095,1.0112,1.0151,1.0152,1.0192,1.0204,1.0246,1.0273,1.0261,1.0329,1.0331,1.0335,1.031,1.031,1.031,1.0303,1.028,0,0,0,0,0,0.9855,0.9891,0.9946,0.9982,1.0,1.0044,1.0068,1.009,1.0131,1.0148,1.0185,1.0224,1.0263,1.0288,1.0327,1.037,1.0382,1.0386,1.0386,1.0385,1.0388,1.0412,1.0414,1.0394,1.0394,1.0394,0,0,0.9853,0.9893,0.9913,0.9977,1.0009,1.0045,1.0058,1.0096,1.0123,1.0154,1.0199,1.0227,1.0274,1.0318,1.0339,1.0342,1.0396,1.0387,1.0386,1.039,1.0413,1.0415,1.0417,1.0394,1.0394,1.0394,0,0,0.9868,0.9902,0.9935,0.9967,1.0016,1.0045,1.0053,1.0107,1.0126,1.0172,1.0196,1.0228,1.0295,1.0326,1.0351,1.0376,1.0393,1.0388,1.0387,1.041,1.0411,1.0413,1.0421,1.0424,1.039,1.039,1.039,0,0.9859,0.9915,0.995,0.9986,1.0013,1.0042,1.0076,1.0105,1.0164,1.0181,1.0183,1.0266,1.03,1.0351,1.0357,1.0376,1.0386,1.0382,1.0408,1.041,1.0412,1.042,1.0423,1.0389,1.039,1.039,1.039,0,0.9902,0.994,0.9961,1.0016,1.0045,1.008,1.0119,1.0144,1.0163,1.0191,1.0237,1.0278,1.0325,1.0339,1.0358,1.0392,1.0392,1.0401,1.0404,1.0413,1.0421,1.0424,1.0388,1.0388,1.0389,1.0389,0,0,0.9902,0.9976,0.9983,1.0008,1.0063,1.0093,1.0128,1.0174,1.0194,1.0233,1.0263,1.0318,1.0325,1.0353,1.0377,1.0396,1.0412,1.0402,1.0404,1.0402,1.0451,1.0444,1.0447,1.0423,1.0424,1.0424,1.0447,0,0.9924,0.9989,1.002,1.0071,1.0106,1.0133,1.0164,1.0201,1.0227,1.026,1.029,1.0328,1.0336,1.0353,1.0373,1.0406,1.0422,1.0405,1.0451,1.0452,1.0438,1.0452,1.0445,1.0464,1.045,1.0451,1.0451,0,0.9958,0.9997,1.0051,1.0101,1.0117,1.0144,1.0187,1.0219,1.026,1.0279,1.0309,1.0331,1.0368,1.0368,1.042,1.0407,1.0427,1.0446,1.0447,1.0453,1.0452,1.0457,1.0471,1.0474,1.0457,1.0457,1.0456,0,0.9952,1.0017,1.0058,1.0079,1.0138,1.0156,1.0182,1.0223,1.0248,1.0286,1.0302,1.0344,1.0367,1.0398,1.0431,1.0428,1.0478,1.0481,1.0494,1.0493,1.0503,1.0502,1.0521,1.0517,1.0517,1.0517,1.0517,0,0.9973,1.0004,1.0056,1.008,1.0116,1.0152,1.0186,1.0214,1.025,1.028,1.0307,1.0334,1.0375,1.0408,1.0433,1.0471,1.0481,1.0497,1.0503,1.0494,1.0492,1.0508,1.0508,1.0517,1.0517,1.0517,1.0517,0,0.9972,1.0008,1.0053,1.0106,1.0119,1.0143,1.0188,1.0213,1.024,1.0278,1.0289,1.0332,1.0372,1.0407,1.0459,1.0476,1.0515,1.0523,1.0501,1.0504,1.0514,1.0513,1.0544,1.0549,1.0541,1.0541,1.0541,0,0.9983,1.0008,1.0062,1.0084,1.011,1.0145,1.017,1.0206,1.0231,1.0279,1.0298,1.0339,1.0374,1.0436,1.0472,1.0511,1.0521,1.0529,1.0527,1.0517,1.052,1.0518,1.052,1.0528,1.0528,1.0528,1.0528,0,0.9998,1.0014,1.005,1.0092,1.0121,1.0156,1.0191,1.0207,1.0249,1.0276,1.0316,1.0343,1.0396,1.0437,1.048,1.0506,1.0524,1.0528,1.0533,1.0524,1.051,1.0518,1.05,1.0527,1.0527,1.0528,1.0528,1.0528,1.0003,1.0026,1.0068,1.0107,1.0137,1.0169,1.0194,1.0225,1.0259,1.0305,1.0324,1.0365,1.0404,1.0465,1.049,1.0522,1.0526,1.0533,1.0535,1.0536,1.0534,1.0505,1.053,1.053,1.053,1.0531,1.0531,0,1.0019,1.0047,1.0082,1.0131,1.0161,1.0175,1.0214,1.0238,1.0274,1.0309,1.0343,1.0389,1.0428,1.0466,1.0507,1.0525,1.0534,1.0534,1.0534,1.0539,1.0529,1.052,1.0526,1.0526,1.0526,1.0526,1.0526,1.0526,1.0031,1.0071,1.0091,1.0145,1.0173,1.0214,1.0235,1.0264,1.0293,1.0343,1.0375,1.04,1.0436,1.048,1.0516,1.0526,1.0539,1.0538,1.055,1.054,1.054,1.054,1.0532,1.054,1.054,1.0557,1.0557,1.0558]},{"header":{"parameterUnit":"m.s-1","parameterCategory":1,"la1":30.2991,"la2":30.254,"lo1":-89.0895,"lo2":-89.0444,"dy":0.0017,"dx":0.0017,"nx":28,"ny":28,"refTime":"2023-11-04T21:00:00:Z","depth":0,"parameterNumber":3,"parameterNumberName":"V-component_of_WINDS"},"data":[0,0,0,0,0,0,0,0,0,0,0,0,0,0,0,0,0,0,0,0,0,0,0,0,0,0,0,0,0,0,0,0,0,0,0,0,0,0,0,0,0,0,0,0,0,0,0,0,0,0,0,0,0,0,0,0,0,0,1.4358,1.4357,0,1.4284,1.4283,1.4282,1.4282,1.4283,1.4284,1.4285,1.4203,1.42,1.4197,0,0,0,0,0,0,0,0,0,0,0,0,0,1.4494,1.4492,1.4358,1.4357,1.4356,1.4284,1.4283,1.4282,1.4282,1.4283,1.4284,1.4285,1.4204,1.4201,1.4197,0,0,0,0,0,0,0,0,0,0,0,0,0,1.4429,1.4491,1.4358,1.4348,1.4346,1.4284,1.4283,1.4282,1.4282,1.4283,1.4285,1.4286,1.4206,1.4201,1.4197,1.4139,0,0,1.4183,1.4181,0,0,0,0,0,0,0,0,1.4433,1.4424,1.435,1.4348,1.4346,1.4294,1.4301,1.4234,1.4281,1.4306,1.4285,1.4287,1.4232,1.4225,1.4208,1.4135,1.4132,1.4182,1.4179,1.4177,1.4176,0,0,0,0,0,0,0,1.4437,1.4427,1.4329,1.4349,1.4347,1.4345,1.4337,1.4288,1.4261,1.4304,1.4304,1.4295,1.4231,1.4213,1.4206,1.413,1.4182,1.4178,1.4175,1.4174,1.4005,1.4004,0,0,0,0,0,0,1.4444,1.4431,1.4331,1.4326,1.4394,1.4341,1.4333,1.4309,1.4262,1.4256,1.4294,1.4296,1.422,1.4212,1.4203,1.4131,1.4177,1.4173,1.417,1.4007,1.4005,1.4003,0,0,0,0,0,0,1.4447,1.4436,1.4334,1.4378,1.4365,1.4337,1.4311,1.4307,1.4288,1.4255,1.4249,1.428,1.422,1.421,1.4155,1.4129,1.4171,1.4167,1.4009,1.4006,1.4004,1.3988,0,0,0,0,0,0,1.4451,1.4437,1.4416,1.4378,1.4363,1.4288,1.4309,1.4304,1.4281,1.4282,1.424,1.4235,1.4221,1.4162,1.4151,1.4123,1.4163,1.4011,1.4008,1.4005,1.3991,1.3985,1.3981,0,0,0,0,0,1.4456,1.4413,1.4415,1.4402,1.4336,1.4287,1.4278,1.4265,1.4279,1.4256,1.4235,1.4236,1.4134,1.4156,1.4143,1.4114,1.4013,1.4009,1.4005,1.3993,1.3986,1.3981,0,0,0,0,0,0,1.4446,1.4408,1.4409,1.4353,1.4323,1.4287,1.4258,1.4258,1.4222,1.4225,1.4208,1.4198,1.4144,1.4124,1.4149,1.4055,1.4075,1.4068,1.407,1.4064,1.4059,1.4063,1.4159,0,0,0,0,0,1.4438,1.4402,1.437,1.4324,1.4309,1.4286,1.4264,1.4257,1.4225,1.4212,1.4186,1.4153,1.4114,1.4088,1.405,1.3989,1.3979,1.3962,1.3957,1.3953,1.3947,1.3912,1.3904,1.3991,1.3991,1.3991,0,0,1.4419,1.4394,1.4372,1.4321,1.4297,1.4259,1.4276,1.4235,1.4206,1.4205,1.4152,1.4132,1.4094,1.4036,1.4009,1.4018,1.3921,1.3948,1.3946,1.3941,1.3907,1.3899,1.3892,1.3988,1.3988,1.3989,0,0,1.4365,1.4344,1.4302,1.4278,1.4243,1.4228,1.4219,1.4182,1.417,1.4117,1.4115,1.408,1.4012,1.3985,1.3963,1.39,1.3899,1.3888,1.3861,1.3827,1.382,1.3814,1.3789,1.3781,1.3883,1.3883,1.3883,0,1.4346,1.429,1.428,1.4239,1.4216,1.4216,1.4172,1.4149,1.4102,1.4086,1.4097,1.4012,1.3987,1.3922,1.3907,1.3889,1.3876,1.3892,1.3822,1.3816,1.381,1.3786,1.3777,1.3881,1.3881,1.3882,1.3882,0,1.4267,1.4229,1.4199,1.4156,1.413,1.4088,1.407,1.4044,1.4039,1.4023,1.3968,1.3938,1.3894,1.3878,1.3872,1.3812,1.3818,1.3826,1.3845,1.38,1.3778,1.3769,1.388,1.388,1.388,1.3881,0,0,1.4203,1.4156,1.4145,1.4125,1.4087,1.4055,1.4013,1.3972,1.3949,1.3917,1.388,1.3824,1.3831,1.3805,1.3797,1.3767,1.3717,1.3778,1.3777,1.3766,1.3647,1.364,1.363,1.3718,1.3716,1.3715,1.3649,0,1.4144,1.407,1.406,1.3994,1.3957,1.3957,1.392,1.3892,1.3876,1.3841,1.3823,1.3782,1.3796,1.378,1.3751,1.373,1.3693,1.3734,1.368,1.3678,1.3688,1.3618,1.3611,1.355,1.3641,1.3639,1.3638,0,1.4064,1.4032,1.3963,1.3929,1.3913,1.3881,1.3841,1.3809,1.3776,1.3767,1.3739,1.3734,1.3688,1.3711,1.3647,1.3675,1.3653,1.3639,1.3636,1.3629,1.3654,1.3607,1.3531,1.3521,1.3625,1.3626,1.3627,0,1.4022,1.3961,1.3912,1.3895,1.3855,1.3832,1.3814,1.3783,1.3758,1.3724,1.3707,1.3667,1.3645,1.3613,1.3597,1.3616,1.3533,1.3555,1.3522,1.3522,1.3502,1.3503,1.342,1.3492,1.3492,1.3492,1.3492,0,1.3955,1.3912,1.3892,1.3861,1.3813,1.3802,1.3754,1.3736,1.3709,1.3673,1.3671,1.3637,1.3619,1.3583,1.357,1.3517,1.3508,1.3497,1.3494,1.3496,1.3497,1.3479,1.3482,1.349,1.349,1.3491,1.3491,0,1.3898,1.3884,1.383,1.3797,1.3788,1.3753,1.3725,1.3694,1.3679,1.3634,1.3623,1.3599,1.3556,1.3537,1.3484,1.3475,1.3414,1.3415,1.3426,1.3424,1.3391,1.3394,1.3291,1.3277,1.3361,1.336,1.3359,0,1.3856,1.3823,1.3788,1.3765,1.3747,1.371,1.3685,1.3673,1.3647,1.3608,1.3581,1.3539,1.3504,1.3435,1.3411,1.337,1.3368,1.3335,1.3361,1.3365,1.3365,1.3366,1.3362,1.3329,1.3328,1.3328,1.3327,0,1.3781,1.3776,1.3742,1.3705,1.3676,1.3646,1.3617,1.3598,1.358,1.3551,1.3508,1.3481,1.3428,1.3384,1.3342,1.3322,1.332,1.332,1.3309,1.331,1.3317,1.3311,1.341,1.3321,1.3322,1.3322,1.3323,1.3323,1.3729,1.3699,1.367,1.3632,1.3609,1.3582,1.3551,1.3533,1.3498,1.3454,1.3449,1.3402,1.337,1.3313,1.3291,1.3253,1.3261,1.3247,1.3243,1.3239,1.3236,1.3325,1.3246,1.3246,1.3246,1.3246,1.3246,0,1.3652,1.3634,1.3599,1.3559,1.3528,1.3533,1.3501,1.3475,1.3434,1.3405,1.3371,1.3321,1.328,1.3254,1.3211,1.3186,1.3184,1.3175,1.3175,1.317,1.3232,1.3244,1.3177,1.3177,1.3177,1.3177,1.3177,1.3177,1.3609,1.3559,1.355,1.3489,1.347,1.3426,1.3407,1.3381,1.3357,1.3302,1.3268,1.3253,1.3224,1.318,1.3141,1.3135,1.3118,1.3108,1.3101,1.3159,1.3166,1.3173,1.3184,1.3105,1.3105,1.3042,1.3042,1.3041]}]]